Von / Nach
Hinflug - Rückflug
Erwachsene / Kinder
Promocode
Nächste Ankünfte Flughafen St.Gallen-Altenrhein

ZeitErw.vonFlugInfo
09:1009:11WienPE101
gelandet
20:5520:55WienPE107
planmässig
Nächste Abflüge Flughafen St.Gallen-Altenrhein

ZeitGeplantnachFlugInfo
18:1518:15WienPE106
planmässig

Flugplan

Bitte wählen Sie Ihren gewünschten Abflug- und Zielflughafen aus.


Live aus Altenrhein
LIVE
LSZR 170750Z 11004KT 3200 BR OVC005 01/01 Q1021 NOSIG RMK E
Zeitraffer heute
2018-12-17 00:00:01
LSZR 162250Z AUTO 12004KT 3600 BR BKN002 M01/M01 Q1015
Zeitraffer gestern
2018-12-16 00:14:03
LSZR 152250Z AUTO 10005KT 9999 NSC M04/M07 Q1017

Ibiza

Ab EUR 279.- hin & zurück.

 

Jetzt buchen

Wien

Ab EUR 109.- pro Strecke.

 

Jetzt buchen

Mallorca

Ab EUR 349.- hin & zurück.

 

Jetzt buchen

General Aviation

Business & General Aviation LSZR.

 

More information

Fluggutscheine

Das ideale Geschenk.

 

Jetzt kaufen

Geschenk an Bord

Überraschen Sie Ihre Liebsten an Bord.

 

Jetzt bestellen

 

 Shuttlebus


Nutzen Sie unseren

Shuttlebus zwischen Altenrhein

und Dornbirn & Bregenz.

 

Mehr dazu

 

People's Online-Shop


Von der Überraschung an

Bord über Badetücher bis

zum Flugzeugmodell.

 

Mehr dazu


News


Aktuelles von People's

und dem Flughafen

St.Gallen-Altenrhein.

 

Mehr dazu

 

Ad-hoc Charter


Chartern Sie eine unserer

Embraer170 für Ihren eigenen

Anlass oder ACMI-Einsätze.


Mehr dazu

  

 

Teile dein People's-Erlebnis mit uns:

 

#peoplesairline bei Instagram